Regional Weather Roundup
Issued by NWS

Home | Current Version | Previous Version | Graphics & Text | Print | Product List | Glossary On
Versions: 1 2 3 4 5 6 7 8 9 10 11 12 13 14 15 16 17 18 19 20 21 22 23 24 25 26 27 28 29 30 31 32 33 34 35 36 37 38 39 40 41 42 43 44 45 46 47 48 49 50
000
ASUS43 KFSD 280202
RWRSD

WEATHER ROUNDUP FOR SOUTH DAKOTA
NATIONAL WEATHER SERVICE SIOUX FALLS SD
900 PM CDT SAT MAY 27 2017

NOTE: "FAIR" INDICATES FEW OR NO CLOUDS BELOW 12,000 FEET WITH NO
SIGNIFICANT WEATHER AND/OR OBSTRUCTIONS TO VISIBILITY.


SDZ001>005-009-010-012>017-280300-
NORTHWEST AND NORTH CENTRAL SOUTH DAKOTA

CITY           SKY/WX    TMP DP  RH WIND       PRES   REMARKS
BUFFALO          N/A     61  48  62 W6        29.92S
FAITH            N/A     57  50  77 NW13      29.96R
MOBRIDGE       CLOUDY    60  49  66 N9        29.87R
$$

SDZ012>016-024>037-041>051-057-063-072>074-280300-
SOUTHWEST AND SOUTH CENTRAL SOUTH DAKOTA

CITY           SKY/WX    TMP DP  RH WIND       PRES   REMARKS
RAPID CTY ARPT CLOUDY    66  35  31 NW16G29   30.02R
PIERRE         MOCLDY    68  39  34 W16       29.88S
CUSTER         CLEAR     56  29  35 NW9G20    30.12R
ELLSWORTH AFB  CLOUDY    64  37  36 NW13      30.01R
PHILIP         CLOUDY    65  41  41 W9        29.95R
PINE RIDGE     CLEAR     60  46  59 W6        30.04R
SPEARFISH      LGT RAIN  54  45  71 NW15      30.10R
WINNER         FAIR      64  49  57 SW9       29.93R
$$

SDZ004>011-016>023-039-040-280300-
NORTHEAST SOUTH DAKOTA

CITY           SKY/WX    TMP DP  RH WIND       PRES   REMARKS
ABERDEEN       MOCLDY    64  39  39 SW3       29.81S
WATERTOWN      PTCLDY    60  45  57 S10       29.84F
BROOKINGS      PTCLDY    61  48  62 SW8       29.88F
SISSETON         N/A     67  46  47 W15       29.79R
$$

SDZ017-020-022-023-036>040-048>070-280300-
SOUTHEAST SOUTH DAKOTA

CITY           SKY/WX    TMP DP  RH WIND       PRES   REMARKS
SIOUX FALLS    CLOUDY    63  53  70 SW3       29.91S
HURON          PTCLDY    65  45  48 S8        29.85S
CHAMBERLAIN    PTCLDY    66  49  55 SW6       29.90S
MITCHELL       CLEAR     65  49  56 S8        29.90S
YANKTON        PTCLDY    60  53  77 W8        29.94R
$$

ABBREVIATIONS USED IN REMARKS
   TC - TEMPERATURE IN CELSIUS
  WCI - WIND CHILL INDEX
   HX - HEAT INDEX
  VSB - VISIBILITY




USA.gov is the U.S. government's official web portal to all federal, state and local government web resources and services.